SCP
0 1 1 1 0 0 0 0 0 0 0 0 0 1 1 1 1 1 1 1 1 0 0 0 0 0 0
0 0 0 1 0 0 0 0 0 0 0 0 0 0 0 1 1 1 1 1 1 0 0 0 0 0 0
0 0 0 0 0 0 0 0 0 0 0 0 0 0 0 0 0 1 1 1 0 0 0 0 0 0 0
1 1 1 1 0 0 0 0 0 0 0 0 0 0 0 0 0 1 1 0 0 0 0 0 0 0 0
0 1 1 1 1 1 0 0 0 0 0 0 1 1 1 0 0 0 0 0 0 0 0 0 0 0 0
0 0 1 1 1 1 1 0 0 0 0 0 0 1 0 0 0 0 0 0 0 0 0 0 0 0 0
0 0 0 1 1 1 1 1 0 0 0 0 0 0 0 0 0 0 0 0 0 0 0 0 0 0 0
0 0 0 0 1 1 1 1 0 0 0 0 0 0 0 0 0 0 0 0 0 0 0 0 0 0 0
0 0 0 0 0 1 1 0 0 0 0 0 0 0 0 0 0 0 0 0 0 0 0 0 0 0 0
0 0 0 0 0 0 1 1 0 0 0 0 0 0 0 0 0 0 0 0 0 0 0 0 0 0 0
0 0 0 0 0 0 0 1 0 0 0 0 0 0 0 0 0 0 0 0 0 0 0 0 0 0 0
0 0 0 0 0 0 0 0 0 0 0 0 0 0 0 0 0 0 0 0 0 0 0 0 0 0 0
-0 0 0 0 0 0 0 0 0 0 0 0 0 0 0 0 0 0 0 0 0 0 0 0 0 0 0
-0 -0 -0 -0 0 0 0 0 0 0 0 0 0 0 0 0 0 0 0 0 0 0 0 0 0 0 0
-0 -0 -0 -0 -0 0 0 0 0 0 0 0 0 0 0 0 0 0 0 0 0 0 0 0 0 0 0
-0 -0 -0 -0 -0 0 -0 0 0 0 0 0 0 0 0 0 0 0 0 0 0 0 0 0 0 0 0
Wind_Speed_500mb
61 62 63 61 57 57 54 51 47 42 44 42 37 36 34 38 54 58 59 64 67 70 55 42 42 45 35
61 65 69 67 62 58 56 54 50 46 47 43 40 38 36 39 57 61 62 68 63 63 57 54 52 47 38
57 58 65 70 65 63 59 56 50 47 48 46 42 38 37 39 57 63 68 73 70 58 60 60 59 53 40
60 60 65 72 70 66 64 63 54 51 51 48 41 39 37 35 54 69 83 80 73 69 67 62 57 56 47
69 68 69 74 71 71 68 65 58 54 56 49 44 40 42 42 48 58 89 90 70 77 66 59 55 54 49
78 76 76 76 76 74 74 68 64 59 61 54 47 45 50 46 56 40 19 36 40 41 38 42 40 45 47
69 84 86 85 81 78 75 72 67 66 66 63 57 52 54 58 65 45 45 50 47 49 54 44 38 41 47
53 68 84 92 82 79 78 77 72 69 71 68 63 59 58 58 59 56 51 49 48 47 44 47 43 47 54
44 61 72 79 88 87 86 83 77 73 73 67 67 66 65 66 56 51 47 44 51 59 54 47 50 47 50
40 48 60 70 79 87 89 89 84 79 76 73 71 69 72 73 65 48 63 64 62 61 63 52 45 50 54
47 43 57 63 74 85 91 86 91 84 82 80 77 72 70 74 73 67 70 75 70 70 70 63 60 54 52
54 43 48 60 69 80 84 96 99 90 90 88 83 79 78 81 82 77 80 80 88 75 68 68 61 62 62
56 53 49 57 64 74 85 98 99 100 97 93 89 84 85 86 89 86 84 98 95 92 85 72 68 61 56
60 55 55 63 60 68 80 90 91 100 104 99 95 92 91 89 93 89 107 100 99 97 90 79 61 60 61
72 69 66 80 66 57 69 83 88 91 106 104 96 97 91 93 97 93 93 103 102 97 95 82 48 35 66
64 74 71 60 71 73 72 83 88 91 101 93 99 99 94 96 96 102 97 107 105 105 90 64 58 60 72
Wind_Direction_500mb
248 246 243 237 239 239 239 238 237 238 240 240 237 232 233 222 212 209 210 209 207 207 204 187 175 184 172
252 247 241 235 237 241 240 239 240 242 240 242 238 232 231 220 208 209 210 209 206 191 194 179 179 178 170
253 247 238 235 238 237 239 239 241 243 238 234 229 228 225 219 206 207 206 202 202 184 174 171 171 176 169
250 244 240 237 239 238 236 236 241 240 233 226 227 229 223 219 212 205 196 204 196 175 172 170 171 176 173
251 245 239 236 238 240 236 237 236 233 225 222 225 223 222 215 201 185 175 190 184 172 169 168 171 175 175
257 247 243 237 237 235 239 236 230 226 224 225 224 218 218 208 191 209 193 174 164 170 189 186 171 174 180
258 254 249 240 238 238 236 233 229 229 226 228 229 222 222 216 218 226 187 196 169 175 184 169 177 179 188
260 255 249 251 239 238 234 230 230 230 229 229 227 217 216 216 195 178 168 178 174 180 174 170 170 176 184
279 262 259 247 250 238 237 230 230 227 230 224 223 213 212 212 196 203 179 172 182 180 178 186 178 174 177
302 272 259 254 250 243 239 234 229 226 226 225 222 219 211 214 203 189 182 170 177 179 176 184 177 182 181
336 298 270 262 255 251 243 235 231 229 225 225 222 223 217 211 200 193 182 184 177 178 178 179 181 182 191
333 321 297 272 260 255 250 244 237 231 229 224 226 225 218 213 203 194 187 188 186 185 174 174 179 184 188
331 327 320 298 272 256 254 248 246 233 231 226 226 224 220 215 206 200 196 188 186 182 176 177 183 187 192
332 315 313 316 287 269 261 246 248 246 233 228 224 225 219 214 207 205 194 186 186 184 179 174 171 185 192
333 327 292 287 305 283 258 246 250 244 236 227 225 222 218 216 208 202 196 191 187 185 190 178 166 186 190
326 328 336 302 297 305 275 248 253 241 244 229 223 220 217 216 209 197 196 197 192 185 189 184 183 185 180
Wind_Speed_850mb
61 62 63 61 57 57 54 51 47 42 44 42 37 36 34 38 54 58 59 64 67 70 55 42 42 45 35
61 65 69 67 62 58 56 54 50 46 47 43 40 38 36 39 57 61 62 68 63 63 57 54 52 47 38
57 58 65 70 65 63 59 56 50 47 48 46 42 38 37 39 57 63 68 73 70 58 60 60 59 53 40
60 60 65 72 70 66 64 63 54 51 51 48 41 39 37 35 54 69 83 80 73 69 67 62 57 56 47
69 68 69 74 71 71 68 65 58 54 56 49 44 40 42 42 48 58 89 90 70 77 66 59 55 54 49
78 76 76 76 76 74 74 68 64 59 61 54 47 45 50 46 56 40 19 36 40 41 38 42 40 45 47
69 84 86 85 81 78 75 72 67 66 66 63 57 52 54 58 65 45 45 50 47 49 54 44 38 41 47
53 68 84 92 82 79 78 77 72 69 71 68 63 59 58 58 59 56 51 49 48 47 44 47 43 47 54
44 61 72 79 88 87 86 83 77 73 73 67 67 66 65 66 56 51 47 44 51 59 54 47 50 47 50
40 48 60 70 79 87 89 89 84 79 76 73 71 69 72 73 65 48 63 64 62 61 63 52 45 50 54
47 43 57 63 74 85 91 86 91 84 82 80 77 72 70 74 73 67 70 75 70 70 70 63 60 54 52
54 43 48 60 69 80 84 96 99 90 90 88 83 79 78 81 82 77 80 80 88 75 68 68 61 62 62
56 53 49 57 64 74 85 98 99 100 97 93 89 84 85 86 89 86 84 98 95 92 85 72 68 61 56
60 55 55 63 60 68 80 90 91 100 104 99 95 92 91 89 93 89 107 100 99 97 90 79 61 60 61
72 69 66 80 66 57 69 83 88 91 106 104 96 97 91 93 97 93 93 103 102 97 95 82 48 35 66
64 74 71 60 71 73 72 83 88 91 101 93 99 99 94 96 96 102 97 107 105 105 90 64 58 60 72
Wind_Direction_850mb
248 246 243 237 239 239 239 238 237 238 240 240 237 232 233 222 212 209 210 209 207 207 204 187 175 184 172
252 247 241 235 237 241 240 239 240 242 240 242 238 232 231 220 208 209 210 209 206 191 194 179 179 178 170
253 247 238 235 238 237 239 239 241 243 238 234 229 228 225 219 206 207 206 202 202 184 174 171 171 176 169
250 244 240 237 239 238 236 236 241 240 233 226 227 229 223 219 212 205 196 204 196 175 172 170 171 176 173
251 245 239 236 238 240 236 237 236 233 225 222 225 223 222 215 201 185 175 190 184 172 169 168 171 175 175
257 247 243 237 237 235 239 236 230 226 224 225 224 218 218 208 191 209 193 174 164 170 189 186 171 174 180
258 254 249 240 238 238 236 233 229 229 226 228 229 222 222 216 218 226 187 196 169 175 184 169 177 179 188
260 255 249 251 239 238 234 230 230 230 229 229 227 217 216 216 195 178 168 178 174 180 174 170 170 176 184
279 262 259 247 250 238 237 230 230 227 230 224 223 213 212 212 196 203 179 172 182 180 178 186 178 174 177
302 272 259 254 250 243 239 234 229 226 226 225 222 219 211 214 203 189 182 170 177 179 176 184 177 182 181
336 298 270 262 255 251 243 235 231 229 225 225 222 223 217 211 200 193 182 184 177 178 178 179 181 182 191
333 321 297 272 260 255 250 244 237 231 229 224 226 225 218 213 203 194 187 188 186 185 174 174 179 184 188
331 327 320 298 272 256 254 248 246 233 231 226 226 224 220 215 206 200 196 188 186 182 176 177 183 187 192
332 315 313 316 287 269 261 246 248 246 233 228 224 225 219 214 207 205 194 186 186 184 179 174 171 185 192
333 327 292 287 305 283 258 246 250 244 236 227 225 222 218 216 208 202 196 191 187 185 190 178 166 186 190
326 328 336 302 297 305 275 248 253 241 244 229 223 220 217 216 209 197 196 197 192 185 189 184 183 185 180